Berlin, NH

4:45 PM EDT on April 26, 2017 (GMT -0400)
Berlin Municipal

Weather History for KBML - December, 2012

Change the Weather History Date:

Tuesday, December 25, 2012

  Actual Average Record
Temperature  
Mean Temperature 15 °F -  
Max Temperature 27 °F 25 °F 52 °F (2015)
Min Temperature 1 °F 6 °F -7 °F (2010)
Degree Days  
Heating Degree Days 50    
Moisture  
Dew Point 7 °F    
Average Humidity 76    
Maximum Humidity 84    
Minimum Humidity 56    
Precipitation  
Precipitation 0.00 in - - ()
Sea Level Pressure  
Sea Level Pressure 30.15 in    
Wind  
Wind Speed 2 mph (North)    
Max Wind Speed 8 mph    
Max Gust Speed -    
Visibility 10 miles    
Events      
Averages and records for this station are not official NWS values.
T = Trace of Precipitation, MM = Missing Value Source: NWS Daily Summary

Daily Weather History Graph

Daily Weather History Graph

Search for Another Location

Airport or City:

Trip Planner

Search our weather history database for the weather conditions in past years. The results will help you decide how hot, cold, wet, or windy it might be!

Date:

Astronomy

Dec. 25, 2012 Rise Set
Actual Time 7:20 AM EST 4:10 PM EST
Civil Twilight 6:46 AM EST 4:43 PM EST
Nautical Twilight 6:09 AM EST 5:20 PM EST
Astronomical Twilight 5:34 AM EST 5:56 PM EST
Moon 2:17 PM EST (12/25) 4:47 AM EST (12/25)
Length of Visible Light 9h 56m
Length of Day
8h 49m
Waxing Gibbous, 93% of the Moon is Illuminated
Dec 25
Waxing Gibbous
Dec 28
Full
Jan 4
Last Quarter
Jan 11
New
Jan 18
First Quarter

Hourly Weather History & Observations

Time (EST) Temp. Windchill Dew Point Humidity Pressure Visibility Wind Dir Wind Speed Gust Speed Precip Events Conditions
12:52 AM 14.0 °F 8.2 °F 10.0 °F 84% 30.06 in 10.0 mi North 3.5 mph - N/A   Clear
1:52 AM 9.0 °F - 3.9 °F 80% 30.08 in 10.0 mi Calm Calm - N/A   Clear
2:52 AM 9.0 °F - 5.0 °F 84% 30.08 in 10.0 mi Calm Calm - N/A   Clear
3:52 AM 3.9 °F - -0.9 °F 80% 30.07 in 10.0 mi Calm Calm - N/A   Clear
4:52 AM 3.0 °F - -2.0 °F 80% 30.06 in 10.0 mi Calm Calm - N/A   Clear
5:52 AM 9.0 °F 2.4 °F 5.0 °F 84% 30.06 in 10.0 mi SW 3.5 mph - N/A   Clear
6:52 AM 9.0 °F - 5.0 °F 84% 30.08 in 10.0 mi Calm Calm - N/A   Partly Cloudy
7:52 AM 10.9 °F - 7.0 °F 84% 30.09 in 10.0 mi Calm Calm - N/A   Overcast
8:52 AM 12.9 °F - 8.1 °F 81% 30.11 in 10.0 mi Calm Calm - N/A   Overcast
9:52 AM 16.0 °F 10.4 °F 10.9 °F 81% 30.14 in 10.0 mi ENE 3.5 mph - N/A   Overcast
10:52 AM 18.0 °F - 12.9 °F 81% 30.12 in 10.0 mi Calm Calm - N/A   Overcast
11:52 AM 21.0 °F - 14.0 °F 74% 30.10 in 10.0 mi Calm Calm - N/A   Overcast
12:52 PM 24.1 °F - 14.0 °F 65% 30.09 in 10.0 mi Calm Calm - N/A   Overcast
1:52 PM 26.1 °F - 14.0 °F 60% 30.10 in 10.0 mi Calm Calm - N/A   Overcast
2:52 PM 27.0 °F 19.5 °F 12.9 °F 56% 30.12 in 10.0 mi NNW 6.9 mph - N/A   Overcast
3:52 PM 25.0 °F 19.3 °F 12.0 °F 58% 30.14 in 10.0 mi NNW 4.6 mph - N/A   Partly Cloudy
4:52 PM 21.0 °F 14.6 °F 10.9 °F 65% 30.18 in 10.0 mi NNW 4.6 mph - N/A   Clear
5:52 PM 18.0 °F 11.1 °F 10.0 °F 71% 30.19 in 10.0 mi North 4.6 mph - N/A   Clear
6:52 PM 17.1 °F - 7.0 °F 65% 30.23 in 10.0 mi Calm Calm - N/A   Clear
7:52 PM 12.0 °F 5.9 °F 7.0 °F 80% 30.27 in 10.0 mi NNE 3.5 mph - N/A   Clear
8:52 PM 14.0 °F 2.9 °F 7.0 °F 74% 30.27 in 10.0 mi North 8.1 mph - N/A   Clear
9:52 PM 8.1 °F - 3.0 °F 80% 30.27 in 10.0 mi Calm Calm - N/A   Clear
10:52 PM 5.0 °F -4.1 °F 1.0 °F 84% 30.30 in 10.0 mi NE 4.6 mph - N/A   Clear
11:52 PM 1.9 °F - -2.0 °F 83% 30.32 in 10.0 mi Calm Calm - N/A   Clear